Time,TemperatureF,DewpointF,PressureIn,WindDirection,WindDirectionDegrees,WindSpeedMPH,WindSpeedGustMPH,Humidity,HourlyPrecipIn,Conditions,Clouds,dailyrainin,SoftwareType,DateUTC
2013-10-16 00:01:00,49.1,39.0,30.10,WNW,293,6.3,9.4,68,0.00,,,0.00,WUHU216HW,2013-10-16 05:01:00,
2013-10-16 00:06:00,49.1,39.0,30.10,NNW,338,8.7,9.4,68,0.00,,,0.00,WUHU216HW,2013-10-16 05:06:00,
2013-10-16 00:11:00,49.1,38.6,30.10,NNW,338,9.2,10.5,67,0.00,,,0.00,WUHU216HW,2013-10-16 05:11:00,
2013-10-16 00:16:00,49.0,38.4,30.10,WNW,293,9.8,10.7,67,0.00,,,0.00,WUHU216HW,2013-10-16 05:16:00,
2013-10-16 00:21:00,49.0,38.4,30.09,NNW,338,14.5,14.5,67,0.00,,,0.00,WUHU216HW,2013-10-16 05:21:00,
2013-10-16 00:26:00,49.0,38.4,30.09,NW,315,12.1,14.5,67,0.00,,,0.00,WUHU216HW,2013-10-16 05:26:00,
2013-10-16 00:31:00,48.8,37.9,30.09,NW,315,9.2,14.5,66,0.00,,,0.00,WUHU216HW,2013-10-16 05:31:00,
2013-10-16 00:36:00,49.0,38.1,30.09,NW,315,13.4,13.4,66,0.00,,,0.00,WUHU216HW,2013-10-16 05:36:00,
2013-10-16 00:41:00,48.8,38.3,30.09,NW,315,9.6,13.4,67,0.00,,,0.00,WUHU216HW,2013-10-16 05:41:00,
2013-10-16 00:46:00,48.6,38.1,30.09,NW,315,8.5,11.4,67,0.00,,,0.00,WUHU216HW,2013-10-16 05:46:00,
2013-10-16 00:51:00,48.4,38.4,30.09,NW,315,6.9,11.4,68,0.00,,,0.00,WUHU216HW,2013-10-16 05:51:00,
2013-10-16 00:56:00,48.2,38.2,30.09,NNW,338,7.2,11.0,68,0.00,,,0.00,WUHU216HW,2013-10-16 05:56:00,
2013-10-16 01:01:00,48.2,38.2,30.09,NNW,338,5.4,10.1,68,0.00,,,0.00,WUHU216HW,2013-10-16 06:01:00,
2013-10-16 01:06:00,48.2,38.2,30.09,NW,315,6.0,7.6,68,0.00,,,0.00,WUHU216HW,2013-10-16 06:06:00,
2013-10-16 01:11:00,47.9,38.2,30.09,WNW,293,6.9,7.6,69,0.00,,,0.00,WUHU216HW,2013-10-16 06:11:00,
2013-10-16 01:16:00,47.9,38.5,30.09,NW,315,8.5,10.5,70,0.00,,,0.00,WUHU216HW,2013-10-16 06:16:00,
2013-10-16 01:21:00,47.9,38.5,30.09,WNW,293,8.5,11.2,70,0.00,,,0.00,WUHU216HW,2013-10-16 06:21:00,
2013-10-16 01:26:00,47.9,38.5,30.09,NNW,338,6.9,11.2,70,0.00,,,0.00,WUHU216HW,2013-10-16 06:26:00,
2013-10-16 01:31:00,48.1,38.7,30.09,WNW,293,8.9,9.4,70,0.00,,,0.00,WUHU216HW,2013-10-16 06:31:00,
2013-10-16 01:36:00,48.1,38.7,30.09,NW,315,9.2,9.4,70,0.00,,,0.00,WUHU216HW,2013-10-16 06:36:00,
2013-10-16 01:41:00,48.1,38.7,30.09,NW,315,5.1,9.2,70,0.00,,,0.00,WUHU216HW,2013-10-16 06:41:00,
2013-10-16 01:46:00,48.2,38.9,30.09,NW,315,5.6,9.2,70,0.00,,,0.00,WUHU216HW,2013-10-16 06:46:00,
2013-10-16 01:51:00,48.2,38.9,30.09,NW,315,14.3,14.3,70,0.00,,,0.00,WUHU216HW,2013-10-16 06:51:00,
2013-10-16 01:56:00,48.2,38.5,30.09,NNW,338,10.5,14.3,69,0.00,,,0.00,WUHU216HW,2013-10-16 06:56:00,
2013-10-16 02:01:00,48.2,38.9,30.09,WNW,293,5.4,11.9,70,0.00,,,0.00,WUHU216HW,2013-10-16 07:01:00,
2013-10-16 02:06:00,48.2,38.5,30.09,NNW,338,9.2,9.6,69,0.00,,,0.00,WUHU216HW,2013-10-16 07:06:00,
2013-10-16 02:11:00,48.2,38.5,30.09,NW,315,8.9,9.2,69,0.00,,,0.00,WUHU216HW,2013-10-16 07:11:00,
2013-10-16 02:16:00,48.2,38.5,30.09,WNW,293,7.6,9.2,69,0.00,,,0.00,WUHU216HW,2013-10-16 07:16:00,
2013-10-16 02:21:00,48.2,38.9,30.09,WNW,293,6.5,9.8,70,0.00,,,0.00,WUHU216HW,2013-10-16 07:21:00,
2013-10-16 02:26:00,48.2,38.5,30.10,North,0,6.3,9.8,69,0.00,,,0.00,WUHU216HW,2013-10-16 07:26:00,
2013-10-16 02:31:00,48.2,38.5,30.10,NNW,338,6.3,9.4,69,0.00,,,0.00,WUHU216HW,2013-10-16 07:31:00,
2013-10-16 02:36:00,48.2,38.9,30.10,WNW,293,8.1,10.1,70,0.00,,,0.00,WUHU216HW,2013-10-16 07:36:00,
2013-10-16 02:41:00,48.2,38.9,30.10,WNW,293,10.7,10.7,70,0.00,,,0.00,WUHU216HW,2013-10-16 07:41:00,
2013-10-16 02:46:00,48.2,38.9,30.09,WNW,293,11.4,12.1,70,0.00,,,0.00,WUHU216HW,2013-10-16 07:46:00,
2013-10-16 02:51:00,48.1,39.1,30.10,WNW,293,10.3,12.1,71,0.00,,,0.00,WUHU216HW,2013-10-16 07:51:00,
2013-10-16 02:56:00,48.1,38.7,30.09,NW,315,2.7,10.3,70,0.00,,,0.00,WUHU216HW,2013-10-16 07:56:00,
2013-10-16 03:01:00,48.1,38.7,30.09,WNW,293,9.4,9.4,70,0.00,,,0.00,WUHU216HW,2013-10-16 08:01:00,
2013-10-16 03:06:00,47.9,38.2,30.09,NW,315,9.6,14.3,69,0.00,,,0.00,WUHU216HW,2013-10-16 08:06:00,
2013-10-16 03:11:00,47.9,38.2,30.09,NNW,338,8.9,14.3,69,0.00,,,0.00,WUHU216HW,2013-10-16 08:11:00,
2013-10-16 03:16:00,47.9,37.8,30.09,NW,315,9.6,9.8,68,0.00,,,0.00,WUHU216HW,2013-10-16 08:16:00,
2013-10-16 03:21:00,47.9,37.8,30.09,NW,315,10.1,10.3,68,0.00,,,0.00,WUHU216HW,2013-10-16 08:21:00,
2013-10-16 03:26:00,47.9,37.8,30.09,NW,315,4.0,10.3,68,0.00,,,0.00,WUHU216HW,2013-10-16 08:26:00,
2013-10-16 03:31:00,47.9,37.8,30.09,NW,315,9.8,10.5,68,0.00,,,0.00,WUHU216HW,2013-10-16 08:31:00,
2013-10-16 03:36:00,47.9,37.8,30.09,NW,315,4.7,10.5,68,0.00,,,0.00,WUHU216HW,2013-10-16 08:36:00,
2013-10-16 03:41:00,47.9,37.8,30.08,NNW,338,10.3,10.3,68,0.00,,,0.00,WUHU216HW,2013-10-16 08:41:00,
2013-10-16 03:46:00,47.9,38.5,30.08,WNW,293,10.3,10.3,70,0.00,,,0.00,WUHU216HW,2013-10-16 08:46:00,
2013-10-16 03:51:00,47.7,38.4,30.08,NW,315,9.6,12.1,70,0.00,,,0.00,WUHU216HW,2013-10-16 08:51:00,
2013-10-16 03:56:00,47.7,38.7,30.08,NNW,338,11.2,12.1,71,0.00,,,0.00,WUHU216HW,2013-10-16 08:56:00,
2013-10-16 04:01:00,47.5,38.9,30.08,NW,315,9.2,11.2,72,0.00,,,0.00,WUHU216HW,2013-10-16 09:01:00,
2013-10-16 04:06:00,47.5,38.9,30.08,West,270,6.0,10.5,72,0.00,,,0.00,WUHU216HW,2013-10-16 09:06:00,
2013-10-16 04:11:00,47.5,38.9,30.08,NW,315,6.0,8.5,72,0.00,,,0.00,WUHU216HW,2013-10-16 09:11:00,
2013-10-16 04:16:00,47.5,39.2,30.08,WNW,293,6.3,7.6,73,0.00,,,0.00,WUHU216HW,2013-10-16 09:16:00,
2013-10-16 04:21:00,47.3,39.4,30.08,NW,315,6.3,7.6,74,0.00,,,0.00,WUHU216HW,2013-10-16 09:21:00,
2013-10-16 04:26:00,47.3,39.4,30.08,NW,315,5.6,10.7,74,0.00,,,0.00,WUHU216HW,2013-10-16 09:26:00,
2013-10-16 04:31:00,47.3,39.4,30.08,WNW,293,5.4,10.7,74,0.00,,,0.00,WUHU216HW,2013-10-16 09:31:00,
2013-10-16 04:36:00,47.2,39.2,30.08,WNW,293,6.5,8.3,74,0.00,,,0.00,WUHU216HW,2013-10-16 09:36:00,
2013-10-16 04:41:00,47.2,39.2,30.07,NNW,338,7.8,8.5,74,0.00,,,0.00,WUHU216HW,2013-10-16 09:41:00,
2013-10-16 04:46:00,47.2,39.2,30.08,WNW,293,9.2,10.7,74,0.00,,,0.00,WUHU216HW,2013-10-16 09:46:00,
2013-10-16 04:51:00,47.2,39.2,30.08,WNW,293,9.2,10.7,74,0.00,,,0.00,WUHU216HW,2013-10-16 09:51:00,
2013-10-16 04:56:00,47.2,39.2,30.08,NW,315,5.8,10.1,74,0.00,,,0.00,WUHU216HW,2013-10-16 09:56:00,
2013-10-16 05:01:00,47.2,39.2,30.08,WNW,293,8.5,9.8,74,0.00,,,0.00,WUHU216HW,2013-10-16 10:01:00,
2013-10-16 05:06:00,47.2,39.2,30.08,NW,315,7.8,10.1,74,0.00,,,0.00,WUHU216HW,2013-10-16 10:06:00,
2013-10-16 05:11:00,47.2,39.2,30.08,NW,315,6.3,10.1,74,0.00,,,0.00,WUHU216HW,2013-10-16 10:11:00,
2013-10-16 05:16:00,47.0,39.4,30.08,NNW,338,7.4,8.5,75,0.00,,,0.00,WUHU216HW,2013-10-16 10:16:00,
2013-10-16 05:21:00,47.2,39.6,30.08,NW,315,4.7,8.5,75,0.00,,,0.00,WUHU216HW,2013-10-16 10:21:00,
2013-10-16 05:26:00,47.2,39.6,30.08,WNW,293,8.7,8.7,75,0.00,,,0.00,WUHU216HW,2013-10-16 10:26:00,
2013-10-16 05:31:00,47.2,39.6,30.09,WNW,293,5.6,8.7,75,0.00,,,0.00,WUHU216HW,2013-10-16 10:31:00,
2013-10-16 05:36:00,47.2,39.6,30.09,NNW,338,5.4,7.8,75,0.00,,,0.00,WUHU216HW,2013-10-16 10:36:00,
2013-10-16 05:41:00,47.2,39.6,30.09,NW,315,6.3,7.8,75,0.00,,,0.00,WUHU216HW,2013-10-16 10:41:00,
2013-10-16 05:46:00,47.0,39.4,30.08,WNW,293,4.7,6.3,75,0.00,,,0.00,WUHU216HW,2013-10-16 10:46:00,
2013-10-16 05:51:00,47.0,39.4,30.08,WNW,293,2.9,6.3,75,0.00,,,0.00,WUHU216HW,2013-10-16 10:51:00,
2013-10-16 05:56:00,47.0,39.4,30.08,West,270,8.5,8.5,75,0.00,,,0.00,WUHU216HW,2013-10-16 10:56:00,
2013-10-16 06:01:00,47.0,39.4,30.08,WNW,293,10.1,10.1,75,0.00,,,0.00,WUHU216HW,2013-10-16 11:01:00,
2013-10-16 06:06:00,46.8,39.3,30.08,WNW,293,6.9,10.1,75,0.00,,,0.00,WUHU216HW,2013-10-16 11:06:00,
2013-10-16 06:11:00,46.8,39.3,30.08,WNW,293,9.8,9.8,75,0.00,,,0.00,WUHU216HW,2013-10-16 11:11:00,
2013-10-16 06:16:00,46.8,39.3,30.08,West,270,7.6,9.8,75,0.00,,,0.00,WUHU216HW,2013-10-16 11:16:00,
2013-10-16 06:21:00,46.8,39.3,30.08,West,270,4.0,9.8,75,0.00,,,0.00,WUHU216HW,2013-10-16 11:21:00,
2013-10-16 06:26:00,46.8,39.0,30.09,WNW,293,8.3,9.2,74,0.00,,,0.00,WUHU216HW,2013-10-16 11:26:00,
2013-10-16 06:31:00,47.0,39.2,30.09,NNW,338,6.9,8.5,74,0.00,,,0.00,WUHU216HW,2013-10-16 11:31:00,
2013-10-16 06:36:00,46.8,39.0,30.09,NW,315,11.6,11.6,74,0.00,,,0.00,WUHU216HW,2013-10-16 11:36:00,
2013-10-16 06:41:00,47.0,38.8,30.09,WNW,293,13.2,13.2,73,0.00,,,0.00,WUHU216HW,2013-10-16 11:41:00,
2013-10-16 06:46:00,46.8,38.6,30.08,NW,315,7.6,13.2,73,0.00,,,0.00,WUHU216HW,2013-10-16 11:46:00,
2013-10-16 06:51:00,46.8,38.6,30.09,NW,315,7.6,8.5,73,0.00,,,0.00,WUHU216HW,2013-10-16 11:51:00,
2013-10-16 06:56:00,46.8,38.6,30.09,NW,315,6.5,9.8,73,0.00,,,0.00,WUHU216HW,2013-10-16 11:56:00,
2013-10-16 07:01:00,46.8,38.3,30.09,NW,315,5.8,11.6,72,0.00,,,0.00,WUHU216HW,2013-10-16 12:01:00,
2013-10-16 07:06:00,46.8,38.6,30.09,NW,315,8.1,11.6,73,0.00,,,0.00,WUHU216HW,2013-10-16 12:06:00,
2013-10-16 07:11:00,46.8,38.3,30.09,NNW,338,7.4,11.2,72,0.00,,,0.00,WUHU216HW,2013-10-16 12:11:00,
2013-10-16 07:16:00,46.8,38.6,30.09,NW,315,6.0,11.2,73,0.00,,,0.00,WUHU216HW,2013-10-16 12:16:00,
2013-10-16 07:21:00,46.6,38.4,30.09,WNW,293,5.8,9.2,73,0.00,,,0.00,WUHU216HW,2013-10-16 12:21:00,
2013-10-16 07:26:00,46.6,38.4,30.09,NNW,338,5.4,7.6,73,0.00,,,0.00,WUHU216HW,2013-10-16 12:26:00,
2013-10-16 07:31:00,46.6,38.8,30.09,WNW,293,4.7,6.9,74,0.00,,,0.00,WUHU216HW,2013-10-16 12:31:00,
2013-10-16 07:36:00,46.6,39.2,30.09,WNW,293,7.2,7.2,75,0.00,,,0.00,WUHU216HW,2013-10-16 12:36:00,
2013-10-16 07:41:00,46.6,39.5,30.09,NW,315,6.3,7.2,76,0.00,,,0.00,WUHU216HW,2013-10-16 12:41:00,
2013-10-16 07:46:00,46.6,39.5,30.09,WNW,293,6.7,6.7,76,0.00,,,0.00,WUHU216HW,2013-10-16 12:46:00,
2013-10-16 07:51:00,46.8,40.0,30.09,WNW,293,6.9,6.9,77,0.00,,,0.00,WUHU216HW,2013-10-16 12:51:00,
2013-10-16 07:56:00,46.8,40.0,30.10,NW,315,5.6,6.9,77,0.00,,,0.00,WUHU216HW,2013-10-16 12:56:00,
2013-10-16 08:01:00,46.6,39.8,30.09,NNW,338,6.3,7.8,77,0.00,,,0.00,WUHU216HW,2013-10-16 13:01:00,
2013-10-16 08:06:00,46.8,40.0,30.10,WNW,293,8.1,8.1,77,0.00,,,0.00,WUHU216HW,2013-10-16 13:06:00,
2013-10-16 08:11:00,46.8,40.0,30.10,WNW,293,7.6,8.9,77,0.00,,,0.00,WUHU216HW,2013-10-16 13:11:00,
2013-10-16 08:16:00,46.6,39.8,30.10,NNW,338,7.2,8.9,77,0.00,,,0.00,WUHU216HW,2013-10-16 13:16:00,
2013-10-16 08:21:00,46.8,39.6,30.10,NW,315,4.7,9.2,76,0.00,,,0.00,WUHU216HW,2013-10-16 13:21:00,
2013-10-16 08:26:00,46.8,39.3,30.10,NW,315,10.5,10.5,75,0.00,,,0.00,WUHU216HW,2013-10-16 13:26:00,
2013-10-16 08:31:00,47.2,39.6,30.10,WNW,293,6.3,10.5,75,0.00,,,0.00,WUHU216HW,2013-10-16 13:31:00,
2013-10-16 08:36:00,47.0,39.4,30.10,NW,315,6.0,10.5,75,0.00,,,0.00,WUHU216HW,2013-10-16 13:36:00,
2013-10-16 08:41:00,47.3,39.8,30.11,NW,315,6.0,8.5,75,0.00,,,0.00,WUHU216HW,2013-10-16 13:41:00,
2013-10-16 08:46:00,47.5,39.2,30.11,NW,315,7.4,8.5,73,0.00,,,0.00,WUHU216HW,2013-10-16 13:46:00,
2013-10-16 08:51:00,47.5,39.6,30.11,WNW,293,8.5,8.5,74,0.00,,,0.00,WUHU216HW,2013-10-16 13:51:00,
2013-10-16 08:56:00,47.5,39.2,30.11,NNW,338,7.2,8.7,73,0.00,,,0.00,WUHU216HW,2013-10-16 13:56:00,
2013-10-16 09:01:00,47.3,39.1,30.11,NNW,338,7.4,9.2,73,0.00,,,0.00,WUHU216HW,2013-10-16 14:01:00,
2013-10-16 09:06:00,47.3,39.1,30.11,NW,315,6.7,9.2,73,0.00,,,0.00,WUHU216HW,2013-10-16 14:06:00,
2013-10-16 09:11:00,47.3,39.1,30.11,NW,315,6.3,11.0,73,0.00,,,0.00,WUHU216HW,2013-10-16 14:11:00,
2013-10-16 09:16:00,47.3,39.1,30.11,NW,315,7.2,11.0,73,0.00,,,0.00,WUHU216HW,2013-10-16 14:16:00,
2013-10-16 09:21:00,47.3,39.1,30.11,NNW,338,3.6,9.8,73,0.00,,,0.00,WUHU216HW,2013-10-16 14:21:00,
2013-10-16 09:26:00,47.9,39.2,30.11,NNW,338,6.9,9.2,72,0.00,,,0.00,WUHU216HW,2013-10-16 14:26:00,
2013-10-16 09:31:00,48.6,40.0,30.11,WNW,293,6.3,9.2,72,0.00,,,0.00,WUHU216HW,2013-10-16 14:31:00,
2013-10-16 09:36:00,49.3,40.0,30.11,NW,315,7.2,10.5,70,0.00,,,0.00,WUHU216HW,2013-10-16 14:36:00,
2013-10-16 09:41:00,49.5,40.1,30.12,WNW,293,8.7,10.5,70,0.00,,,0.00,WUHU216HW,2013-10-16 14:41:00,
2013-10-16 09:46:00,49.3,40.0,30.11,NW,315,10.5,11.4,70,0.00,,,0.00,WUHU216HW,2013-10-16 14:46:00,
2013-10-16 09:51:00,49.0,39.6,30.11,WNW,293,10.3,11.4,70,0.00,,,0.00,WUHU216HW,2013-10-16 14:51:00,
2013-10-16 09:56:00,49.0,39.6,30.12,WNW,293,6.3,11.6,70,0.00,,,0.00,WUHU216HW,2013-10-16 14:56:00,
2013-10-16 10:01:00,49.3,39.6,30.12,NNW,338,6.9,11.6,69,0.00,,,0.00,WUHU216HW,2013-10-16 15:01:00,
2013-10-16 10:06:00,49.7,39.5,30.12,WNW,293,5.6,10.3,68,0.00,,,0.00,WUHU216HW,2013-10-16 15:06:00,
2013-10-16 10:11:00,49.7,39.5,30.11,NW,315,6.9,11.4,68,0.00,,,0.00,WUHU216HW,2013-10-16 15:11:00,
2013-10-16 10:16:00,49.7,40.0,30.12,NW,315,7.4,11.4,69,0.00,,,0.00,WUHU216HW,2013-10-16 15:16:00,
2013-10-16 10:21:00,49.9,39.7,30.12,NW,315,8.7,10.1,68,0.00,,,0.00,WUHU216HW,2013-10-16 15:21:00,
2013-10-16 10:26:00,49.9,39.7,30.12,NW,315,5.4,9.4,68,0.00,,,0.00,WUHU216HW,2013-10-16 15:26:00,
2013-10-16 10:31:00,49.9,39.7,30.12,WNW,293,6.3,9.4,68,0.00,,,0.00,WUHU216HW,2013-10-16 15:31:00,
2013-10-16 10:36:00,49.9,39.7,30.12,West,270,5.6,8.7,68,0.00,,,0.00,WUHU216HW,2013-10-16 15:36:00,
2013-10-16 10:41:00,49.9,39.3,30.12,West,270,7.6,10.5,67,0.00,,,0.00,WUHU216HW,2013-10-16 15:41:00,
2013-10-16 10:46:00,50.2,39.7,30.12,NW,315,9.8,10.5,67,0.00,,,0.00,WUHU216HW,2013-10-16 15:46:00,
2013-10-16 10:51:00,50.6,40.1,30.12,WNW,293,7.4,9.8,67,0.00,,,0.00,WUHU216HW,2013-10-16 15:51:00,
2013-10-16 10:56:00,51.1,41.0,30.11,WNW,293,4.0,9.8,68,0.00,,,0.00,WUHU216HW,2013-10-16 15:56:00,
2013-10-16 11:01:00,52.0,41.4,30.11,NNE,23,7.2,7.2,67,0.00,,,0.00,WUHU216HW,2013-10-16 16:01:00,
2013-10-16 11:06:00,52.9,41.4,30.11,NNW,338,3.1,7.2,65,0.00,,,0.00,WUHU216HW,2013-10-16 16:06:00,
2013-10-16 11:11:00,54.4,42.4,30.11,NW,315,4.0,6.7,64,0.00,,,0.00,WUHU216HW,2013-10-16 16:11:00,
2013-10-16 11:16:00,54.2,41.1,30.11,NW,315,7.6,9.8,61,0.00,,,0.00,WUHU216HW,2013-10-16 16:16:00,
2013-10-16 11:21:00,53.1,40.8,30.11,WSW,248,4.3,9.8,63,0.00,,,0.00,WUHU216HW,2013-10-16 16:21:00,
2013-10-16 11:26:00,52.6,40.7,30.11,NNW,338,9.6,9.6,64,0.00,,,0.00,WUHU216HW,2013-10-16 16:26:00,
2013-10-16 11:31:00,52.4,40.5,30.11,WNW,293,9.4,9.6,64,0.00,,,0.00,WUHU216HW,2013-10-16 16:31:00,
2013-10-16 11:36:00,52.2,40.3,30.12,NW,315,3.1,9.6,64,0.00,,,0.00,WUHU216HW,2013-10-16 16:36:00,
2013-10-16 11:41:00,53.6,41.8,30.12,WNW,293,2.0,6.3,64,0.00,,,0.00,WUHU216HW,2013-10-16 16:41:00,
2013-10-16 11:46:00,54.7,42.0,30.12,WNW,293,4.9,5.6,62,0.00,,,0.00,WUHU216HW,2013-10-16 16:46:00,
2013-10-16 11:51:00,54.0,40.5,30.11,NNW,338,6.5,8.1,60,0.00,,,0.00,WUHU216HW,2013-10-16 16:51:00,
2013-10-16 11:56:00,53.6,41.3,30.11,NNW,338,7.6,8.1,63,0.00,,,0.00,WUHU216HW,2013-10-16 16:56:00,
2013-10-16 12:01:00,53.6,41.0,30.11,WNW,293,5.8,7.6,62,0.00,,,0.00,WUHU216HW,2013-10-16 17:01:00,
2013-10-16 12:06:00,54.4,40.8,30.11,NNW,338,3.4,10.5,60,0.00,,,0.00,WUHU216HW,2013-10-16 17:06:00,
2013-10-16 12:11:00,54.0,40.9,30.11,WNW,293,5.4,10.5,61,0.00,,,0.00,WUHU216HW,2013-10-16 17:11:00,
2013-10-16 12:16:00,53.6,40.5,30.11,West,270,5.4,5.4,61,0.00,,,0.00,WUHU216HW,2013-10-16 17:16:00,
2013-10-16 12:21:00,54.4,41.6,30.11,WNW,293,6.7,8.3,62,0.00,,,0.00,WUHU216HW,2013-10-16 17:21:00,
2013-10-16 12:26:00,55.1,41.9,30.11,WNW,293,3.4,8.3,61,0.00,,,0.00,WUHU216HW,2013-10-16 17:26:00,
2013-10-16 12:31:00,54.7,41.1,30.11,NNW,338,5.4,5.8,60,0.00,,,0.00,WUHU216HW,2013-10-16 17:31:00,
2013-10-16 12:36:00,54.4,41.2,30.11,North,0,1.3,5.4,61,0.00,,,0.00,WUHU216HW,2013-10-16 17:36:00,
2013-10-16 12:41:00,56.2,41.6,30.11,WSW,248,5.1,5.4,58,0.00,,,0.00,WUHU216HW,2013-10-16 17:41:00,
2013-10-16 12:46:00,55.6,41.5,30.11,NNW,338,5.1,5.1,59,0.00,,,0.00,WUHU216HW,2013-10-16 17:46:00,
2013-10-16 12:51:00,54.7,40.7,30.10,ESE,113,4.0,6.5,59,0.00,,,0.00,WUHU216HW,2013-10-16 17:51:00,
2013-10-16 12:56:00,54.5,41.3,30.10,WNW,293,2.0,6.5,61,0.00,,,0.00,WUHU216HW,2013-10-16 17:56:00,
2013-10-16 13:00:00,54.7,41.5,30.10,West,270,1.3,1.3,61,0.00,,,0.00,WUHU216HW,2013-10-16 18:00:00,
2013-10-16 13:01:00,54.7,41.5,30.10,West,270,1.3,4.0,61,0.00,,,0.00,WUHU216HW,2013-10-16 18:01:00,
2013-10-16 13:06:00,54.7,41.5,30.10,West,270,1.3,1.3,61,0.00,,,0.00,WUHU216HW,2013-10-16 18:06:00,
2013-10-16 13:30:00,54.4,41.2,30.09,NW,315,4.9,4.9,61,0.00,,,0.00,WUHU216HW,2013-10-16 18:30:00,
2013-10-16 13:31:00,54.4,41.2,30.09,NW,315,4.9,4.9,61,0.00,,,0.00,WUHU216HW,2013-10-16 18:31:00,
2013-10-16 13:36:00,54.4,41.2,30.09,NW,315,4.9,4.9,61,0.00,,,0.00,WUHU216HW,2013-10-16 18:36:00,
2013-10-16 14:00:00,55.1,41.0,30.08,WNW,293,6.3,6.3,59,0.00,,,0.00,WUHU216HW,2013-10-16 19:00:00,
2013-10-16 14:05:00,55.1,41.0,30.08,WNW,293,6.3,6.3,59,0.00,,,0.00,WUHU216HW,2013-10-16 19:05:00,
2013-10-16 14:30:00,55.6,41.9,30.07,WNW,293,6.7,6.7,60,0.00,,,0.00,WUHU216HW,2013-10-16 19:30:00,
2013-10-16 14:35:00,55.4,41.3,30.07,NW,315,6.3,6.7,59,0.00,,,0.00,WUHU216HW,2013-10-16 19:35:00,
2013-10-16 14:40:00,55.6,41.1,30.06,NNW,338,4.9,6.9,58,0.00,,,0.00,WUHU216HW,2013-10-16 19:40:00,
2013-10-16 14:45:00,55.6,41.1,30.06,NW,315,6.9,8.9,58,0.00,,,0.00,WUHU216HW,2013-10-16 19:45:00,
2013-10-16 14:50:00,55.4,40.9,30.07,NW,315,3.6,8.9,58,0.00,,,0.00,WUHU216HW,2013-10-16 19:50:00,
2013-10-16 14:55:00,55.4,41.3,30.06,NNW,338,6.5,6.9,59,0.00,,,0.00,WUHU216HW,2013-10-16 19:55:00,
2013-10-16 15:00:00,55.4,41.3,30.06,NW,315,6.3,6.9,59,0.00,,,0.00,WUHU216HW,2013-10-16 20:00:00,
2013-10-16 15:05:00,55.4,41.3,30.06,NW,315,5.8,6.9,59,0.00,,,0.00,WUHU216HW,2013-10-16 20:05:00,
2013-10-16 15:10:00,55.6,41.5,30.07,NW,315,5.4,6.9,59,0.00,,,0.00,WUHU216HW,2013-10-16 20:10:00,
2013-10-16 15:15:00,55.8,41.7,30.06,NW,315,3.4,5.8,59,0.00,,,0.00,WUHU216HW,2013-10-16 20:15:00,
2013-10-16 15:20:00,56.2,42.0,30.06,NNW,338,3.4,5.4,59,0.00,,,0.00,WUHU216HW,2013-10-16 20:20:00,
2013-10-16 15:25:00,56.9,41.8,30.06,West,270,1.1,4.7,57,0.00,,,0.00,WUHU216HW,2013-10-16 20:25:00,
2013-10-16 15:30:00,57.1,41.5,30.06,NW,315,5.8,5.8,56,0.00,,,0.00,WUHU216HW,2013-10-16 20:30:00,
2013-10-16 15:35:00,56.5,41.0,30.05,WNW,293,6.3,6.3,56,0.00,,,0.00,WUHU216HW,2013-10-16 20:35:00,
2013-10-16 15:40:00,56.2,41.0,30.05,WNW,293,5.1,6.3,57,0.00,,,0.00,WUHU216HW,2013-10-16 20:40:00,
2013-10-16 15:45:00,56.9,41.8,30.05,NNW,338,5.1,6.3,57,0.00,,,0.00,WUHU216HW,2013-10-16 20:45:00,
2013-10-16 15:50:00,57.4,42.8,30.05,North,0,2.9,5.1,58,0.00,,,0.00,WUHU216HW,2013-10-16 20:50:00,
2013-10-16 15:55:00,60.1,42.4,30.05,NNW,338,2.5,5.1,52,0.00,,,0.00,WUHU216HW,2013-10-16 20:55:00,
2013-10-16 16:00:00,59.8,42.1,30.04,North,0,3.1,5.1,52,0.00,,,0.00,WUHU216HW,2013-10-16 21:00:00,
2013-10-16 16:05:00,59.2,42.6,30.04,NNW,338,1.8,5.1,54,0.00,,,0.00,WUHU216HW,2013-10-16 21:05:00,
2013-10-16 16:10:00,59.0,42.8,30.04,North,0,3.6,3.6,55,0.00,,,0.00,WUHU216HW,2013-10-16 21:10:00,
2013-10-16 16:15:00,58.7,42.0,30.04,NNW,338,3.4,4.7,54,0.00,,,0.00,WUHU216HW,2013-10-16 21:15:00,
2013-10-16 16:20:00,58.0,41.4,30.04,NNW,338,3.6,6.0,54,0.00,,,0.00,WUHU216HW,2013-10-16 21:20:00,
2013-10-16 16:25:00,57.4,41.4,30.04,ENE,68,1.8,6.0,55,0.00,,,0.00,WUHU216HW,2013-10-16 21:25:00,
2013-10-16 16:30:00,57.2,41.2,30.04,NNW,338,4.7,4.7,55,0.00,,,0.00,WUHU216HW,2013-10-16 21:30:00,
2013-10-16 16:35:00,56.9,41.3,30.03,NNE,23,1.3,4.7,56,0.00,,,0.00,WUHU216HW,2013-10-16 21:35:00,
2013-10-16 16:40:00,56.9,41.3,30.03,North,0,1.1,4.7,56,0.00,,,0.00,WUHU216HW,2013-10-16 21:40:00,
2013-10-16 16:45:00,56.7,41.1,30.03,North,0,6.0,6.0,56,0.00,,,0.00,WUHU216HW,2013-10-16 21:45:00,
2013-10-16 16:50:00,56.9,41.3,30.03,North,0,1.8,6.0,56,0.00,,,0.00,WUHU216HW,2013-10-16 21:50:00,
2013-10-16 16:55:00,57.2,41.7,30.03,North,0,4.9,6.0,56,0.00,,,0.00,WUHU216HW,2013-10-16 21:55:00,
2013-10-16 17:00:00,57.2,41.7,30.03,NNE,23,0.7,4.9,56,0.00,,,0.00,WUHU216HW,2013-10-16 22:00:00,
2013-10-16 17:05:00,57.2,41.2,30.03,NNW,338,1.3,4.9,55,0.00,,,0.00,WUHU216HW,2013-10-16 22:05:00,
2013-10-16 17:10:00,56.9,41.3,30.03,NNW,338,2.0,2.0,56,0.00,,,0.00,WUHU216HW,2013-10-16 22:10:00,
2013-10-16 17:15:00,56.5,41.4,30.03,NNE,23,0.7,4.0,57,0.00,,,0.00,WUHU216HW,2013-10-16 22:15:00,
2013-10-16 17:20:00,56.7,41.6,30.03,NW,315,2.2,4.0,57,0.00,,,0.00,WUHU216HW,2013-10-16 22:20:00,
2013-10-16 17:25:00,56.3,41.2,30.03,North,0,0.9,2.7,57,0.00,,,0.00,WUHU216HW,2013-10-16 22:25:00,
2013-10-16 17:30:00,56.2,41.0,30.03,NNW,338,1.8,2.7,57,0.00,,,0.00,WUHU216HW,2013-10-16 22:30:00,
2013-10-16 17:35:00,56.0,40.9,30.03,NNW,338,1.8,2.2,57,0.00,,,0.00,WUHU216HW,2013-10-16 22:35:00,
2013-10-16 17:40:00,56.2,41.6,30.03,North,0,0.2,2.2,58,0.00,,,0.00,WUHU216HW,2013-10-16 22:40:00,
2013-10-16 17:45:00,56.0,41.4,30.03,NE,45,0.2,2.0,58,0.00,,,0.00,WUHU216HW,2013-10-16 22:45:00,
2013-10-16 17:50:00,56.0,41.4,30.03,NE,45,0.4,1.1,58,0.00,,,0.00,WUHU216HW,2013-10-16 22:50:00,
2013-10-16 17:55:00,55.8,41.2,30.03,North,0,0.0,0.7,58,0.00,,,0.00,WUHU216HW,2013-10-16 22:55:00,
2013-10-16 18:00:00,55.6,41.1,30.03,NNE,23,0.4,0.7,58,0.00,,,0.00,WUHU216HW,2013-10-16 23:00:00,
2013-10-16 18:05:00,55.6,41.5,30.03,NNE,23,0.4,1.3,59,0.00,,,0.00,WUHU216HW,2013-10-16 23:05:00,
2013-10-16 18:10:00,55.6,41.5,30.03,ENE,68,0.4,1.3,59,0.00,,,0.00,WUHU216HW,2013-10-16 23:10:00,
2013-10-16 18:15:00,55.4,41.3,30.04,ENE,68,0.0,0.7,59,0.00,,,0.00,WUHU216HW,2013-10-16 23:15:00,
2013-10-16 18:20:00,55.1,41.0,30.04,ENE,68,0.0,0.4,59,0.00,,,0.00,WUHU216HW,2013-10-16 23:20:00,
2013-10-16 18:25:00,54.9,41.3,30.04,East,90,0.4,0.4,60,0.00,,,0.00,WUHU216HW,2013-10-16 23:25:00,
2013-10-16 18:30:00,54.5,41.3,30.04,East,90,0.2,0.4,61,0.00,,,0.00,WUHU216HW,2013-10-16 23:30:00,
2013-10-16 18:35:00,54.4,41.6,30.03,East,90,0.7,0.7,62,0.00,,,0.00,WUHU216HW,2013-10-16 23:35:00,
2013-10-16 18:40:00,54.2,41.4,30.04,ENE,68,0.0,0.7,62,0.00,,,0.00,WUHU216HW,2013-10-16 23:40:00,
2013-10-16 18:45:00,53.8,41.5,30.04,East,90,0.0,0.4,63,0.00,,,0.00,WUHU216HW,2013-10-16 23:45:00,
2013-10-16 18:50:00,53.6,41.8,30.05,ENE,68,0.4,0.4,64,0.00,,,0.00,WUHU216HW,2013-10-16 23:50:00,
2013-10-16 18:55:00,53.6,41.8,30.04,ENE,68,0.4,0.4,64,0.00,,,0.00,WUHU216HW,2013-10-16 23:55:00,
2013-10-16 19:00:00,53.6,41.8,30.04,ENE,68,0.0,0.4,64,0.00,,,0.00,WUHU216HW,2013-10-17 00:00:00,
2013-10-16 19:05:00,53.6,42.1,30.05,ENE,68,0.2,0.4,65,0.00,,,0.00,WUHU216HW,2013-10-17 00:05:00,
2013-10-16 19:10:00,53.5,42.4,30.05,ENE,68,0.2,0.4,66,0.00,,,0.00,WUHU216HW,2013-10-17 00:10:00,
2013-10-16 19:15:00,53.3,42.6,30.05,ENE,68,1.3,2.0,67,0.00,,,0.00,WUHU216HW,2013-10-17 00:15:00,
2013-10-16 19:20:00,53.1,42.4,30.05,East,90,0.4,2.0,67,0.00,,,0.00,WUHU216HW,2013-10-17 00:20:00,
2013-10-16 19:25:00,52.9,42.2,30.05,East,90,1.1,1.8,67,0.00,,,0.00,WUHU216HW,2013-10-17 00:25:00,
2013-10-16 19:30:00,52.9,42.2,30.05,ESE,113,1.1,1.1,67,0.00,,,0.00,WUHU216HW,2013-10-17 00:30:00,
2013-10-16 19:35:00,52.9,42.2,30.05,ESE,113,1.1,1.1,67,0.00,,,0.00,WUHU216HW,2013-10-17 00:35:00,
2013-10-16 19:40:00,52.9,42.7,30.06,ESE,113,1.1,1.6,68,0.00,,,0.00,WUHU216HW,2013-10-17 00:40:00,
2013-10-16 19:45:00,52.9,42.7,30.06,SE,135,0.4,1.6,68,0.00,,,0.00,WUHU216HW,2013-10-17 00:45:00,
2013-10-16 19:50:00,52.9,42.7,30.05,ESE,113,1.1,1.3,68,0.00,,,0.00,WUHU216HW,2013-10-17 00:50:00,
2013-10-16 19:55:00,52.7,42.9,30.05,SE,135,1.8,1.8,69,0.00,,,0.00,WUHU216HW,2013-10-17 00:55:00,
2013-10-16 20:00:00,52.6,42.8,30.04,SE,135,0.9,2.5,69,0.00,,,0.00,WUHU216HW,2013-10-17 01:00:00,
2013-10-16 20:05:00,52.2,42.4,30.05,ESE,113,1.1,2.5,69,0.00,,,0.00,WUHU216HW,2013-10-17 01:05:00,
2013-10-16 20:10:00,52.2,42.4,30.05,ESE,113,0.4,1.3,69,0.00,,,0.00,WUHU216HW,2013-10-17 01:10:00,
2013-10-16 20:15:00,52.2,42.4,30.05,ESE,113,0.2,1.3,69,0.00,,,0.00,WUHU216HW,2013-10-17 01:15:00,
2013-10-16 20:20:00,52.2,42.9,30.05,ESE,113,0.4,0.9,70,0.00,,,0.00,WUHU216HW,2013-10-17 01:20:00,
2013-10-16 20:25:00,52.2,42.4,30.05,ESE,113,0.2,0.4,69,0.00,,,0.00,WUHU216HW,2013-10-17 01:25:00,
2013-10-16 20:30:00,52.2,42.4,30.04,East,90,0.7,0.7,69,0.00,,,0.00,WUHU216HW,2013-10-17 01:30:00,
2013-10-16 20:35:00,52.2,42.4,30.05,East,90,0.0,0.7,69,0.00,,,0.00,WUHU216HW,2013-10-17 01:35:00,
2013-10-16 20:40:00,52.2,42.4,30.05,East,90,0.0,0.7,69,0.00,,,0.00,WUHU216HW,2013-10-17 01:40:00,
2013-10-16 20:45:00,52.2,42.9,30.05,ESE,113,1.1,1.1,70,0.00,,,0.00,WUHU216HW,2013-10-17 01:45:00,
2013-10-16 20:50:00,52.2,42.9,30.05,SE,135,1.3,1.8,70,0.00,,,0.00,WUHU216HW,2013-10-17 01:50:00,
2013-10-16 20:55:00,52.2,42.9,30.05,SE,135,0.0,1.8,70,0.00,,,0.00,WUHU216HW,2013-10-17 01:55:00,
2013-10-16 21:00:00,52.0,43.0,30.04,NE,45,0.4,1.6,71,0.00,,,0.00,WUHU216HW,2013-10-17 02:00:00,
2013-10-16 21:05:00,52.0,43.0,30.04,ENE,68,0.0,1.6,71,0.00,,,0.00,WUHU216HW,2013-10-17 02:05:00,
2013-10-16 21:10:00,52.2,43.1,30.04,East,90,0.0,0.9,71,0.00,,,0.00,WUHU216HW,2013-10-17 02:10:00,
2013-10-16 21:15:00,52.2,42.9,30.04,East,90,0.0,0.7,70,0.00,,,0.00,WUHU216HW,2013-10-17 02:15:00,
2013-10-16 21:20:00,52.0,43.0,30.04,East,90,0.0,0.7,71,0.00,,,0.00,WUHU216HW,2013-10-17 02:20:00,
2013-10-16 21:25:00,51.7,42.7,30.05,East,90,0.0,0.2,71,0.00,,,0.00,WUHU216HW,2013-10-17 02:25:00,
2013-10-16 21:30:00,51.7,42.7,30.05,East,90,0.0,0.2,71,0.00,,,0.00,WUHU216HW,2013-10-17 02:30:00,
2013-10-16 21:35:00,51.7,43.0,30.05,East,90,0.2,0.4,72,0.00,,,0.00,WUHU216HW,2013-10-17 02:35:00,
2013-10-16 21:40:00,51.8,42.9,30.05,East,90,0.0,0.4,71,0.00,,,0.00,WUHU216HW,2013-10-17 02:40:00,
2013-10-16 21:45:00,52.0,43.0,30.04,East,90,0.4,0.7,71,0.00,,,0.00,WUHU216HW,2013-10-17 02:45:00,
2013-10-16 21:50:00,52.0,43.0,30.04,East,90,0.0,0.7,71,0.00,,,0.00,WUHU216HW,2013-10-17 02:50:00,
2013-10-16 21:55:00,52.0,43.0,30.04,East,90,0.0,0.4,71,0.00,,,0.00,WUHU216HW,2013-10-17 02:55:00,
2013-10-16 22:00:00,52.0,43.3,30.04,East,90,0.4,0.4,72,0.00,,,0.00,WUHU216HW,2013-10-17 03:00:00,
2013-10-16 22:05:00,51.7,43.0,30.05,East,90,0.7,0.7,72,0.00,,,0.00,WUHU216HW,2013-10-17 03:05:00,
2013-10-16 22:10:00,51.5,42.9,30.04,East,90,0.7,1.1,72,0.00,,,0.00,WUHU216HW,2013-10-17 03:10:00,
2013-10-16 22:15:00,51.5,42.9,30.04,East,90,0.4,1.1,72,0.00,,,0.00,WUHU216HW,2013-10-17 03:15:00,
2013-10-16 22:20:00,51.5,42.9,30.04,East,90,0.0,0.7,72,0.00,,,0.00,WUHU216HW,2013-10-17 03:20:00,
2013-10-16 22:25:00,51.5,42.9,30.04,East,90,0.0,0.4,72,0.00,,,0.00,WUHU216HW,2013-10-17 03:25:00,
2013-10-16 22:30:00,51.5,43.1,30.04,East,90,0.0,0.2,73,0.00,,,0.00,WUHU216HW,2013-10-17 03:30:00,
2013-10-16 22:35:00,51.5,42.9,30.04,East,90,0.0,0.0,72,0.00,,,0.00,WUHU216HW,2013-10-17 03:35:00,
2013-10-16 22:40:00,51.5,42.9,30.04,East,90,0.0,0.0,72,0.00,,,0.00,WUHU216HW,2013-10-17 03:40:00,
2013-10-16 22:45:00,51.5,42.9,30.04,East,90,0.0,0.0,72,0.00,,,0.00,WUHU216HW,2013-10-17 03:45:00,
2013-10-16 22:50:00,51.5,42.9,30.04,East,90,0.0,0.0,72,0.00,,,0.00,WUHU216HW,2013-10-17 03:50:00,
2013-10-16 22:55:00,51.5,42.9,30.04,East,90,0.0,0.0,72,0.00,,,0.00,WUHU216HW,2013-10-17 03:55:00,
2013-10-16 23:00:00,51.3,42.7,30.04,East,90,0.0,0.0,72,0.00,,,0.00,WUHU216HW,2013-10-17 04:00:00,
2013-10-16 23:01:00,51.5,42.9,30.03,East,90,0.0,0.0,72,0.00,,,0.00,WUHU216HW,2013-10-17 04:01:00,
2013-10-16 23:02:00,51.3,42.7,30.03,East,90,0.0,0.0,72,0.00,,,0.00,WUHU216HW,2013-10-17 04:02:00,
2013-10-16 23:07:00,51.1,42.5,30.03,East,90,0.0,0.2,72,0.00,,,0.00,WUHU216HW,2013-10-17 04:07:00,
2013-10-16 23:12:00,51.1,42.5,30.03,East,90,0.0,0.4,72,0.00,,,0.00,WUHU216HW,2013-10-17 04:12:00,
2013-10-16 23:17:00,51.1,42.5,30.03,East,90,0.0,0.4,72,0.00,,,0.00,WUHU216HW,2013-10-17 04:17:00,
2013-10-16 23:22:00,51.1,42.5,30.03,ESE,113,0.2,0.7,72,0.00,,,0.00,WUHU216HW,2013-10-17 04:22:00,
2013-10-16 23:27:00,50.8,42.4,30.03,SSW,203,0.7,0.7,73,0.00,,,0.00,WUHU216HW,2013-10-17 04:27:00,
2013-10-16 23:32:00,50.8,42.4,30.03,SE,135,1.1,1.1,73,0.00,,,0.00,WUHU216HW,2013-10-17 04:32:00,
2013-10-16 23:37:00,50.4,42.4,30.03,SSE,158,0.4,1.1,74,0.00,,,0.00,WUHU216HW,2013-10-17 04:37:00,
2013-10-16 23:42:00,50.4,42.4,30.03,SSE,158,1.1,1.1,74,0.00,,,0.00,WUHU216HW,2013-10-17 04:42:00,
2013-10-16 23:47:00,50.4,42.4,30.03,SSE,158,0.4,1.1,74,0.00,,,0.00,WUHU216HW,2013-10-17 04:47:00,
2013-10-16 23:52:00,50.2,42.2,30.03,South,180,1.1,1.1,74,0.00,,,0.00,WUHU216HW,2013-10-17 04:52:00,
2013-10-16 23:57:00,49.9,42.2,30.03,South,180,1.1,1.6,75,0.00,,,0.00,WUHU216HW,2013-10-17 04:57:00,